Location: Newark
(33.6333°S, 78.8500°W)
Time: 21:32:12
(UTC+00:00)

Tiros 1 - Pass Details

Date: 20 October 2019
Orbit: 630 x 664 km, 48.4° (Epoch: 19 November)

Event Time Altitude Azimuth Distance (km) Brightness Sun altitude
Rises 22:09:27 0° 229° (SW) 2,943 11.4 16.3°
Reaches altitude 10° 22:12:54 10° 203° (SSW) 2,031 10.1 15.6°
Maximum altitude 22:15:20 14° 172° (S) 1,784 9.4 15.1°
Drops below altitude 10° 22:17:45 10° 140° (SE) 2,028 9.4 14.6°
Sets 22:21:11 0° 114° (ESE) 2,936 10.0 13.9°
